RH
11 10 10 9 8 8 6 5 5 5 5 4 4 3 2 3 3 3 4 5 6 6 6 6 6 6 6 6 5 5 4 4 4 3 3 4 5 4 5 5 5 5 5 7 10 13 16 20 21 22 24 27 31 33 31 31 32 32 32 31 30 29 27 27 27 28 33 35 37 39 38 39 37 37 38 38 40 39 39 39 39 39 38 39 39 40 47 48
11 10 10 9 8 8 7 6 5 5 6 5 4 3 3 3 3 3 3 4 5 5 6 6 6 6 6 6 6 4 3 4 3 3 3 4 4 4 5 4 5 5 5 8 10 12 16 17 19 19 20 24 28 30 28 28 31 31 31 29 27 25 21 20 24 28 32 35 36 37 37 37 37 36 37 39 40 38 39 40 38 39 40 40 39 40 45 46
11 11 10 9 9 8 7 6 6 6 6 5 4 4 3 3 3 3 3 3 4 5 5 6 6 6 6 6 5 4 4 4 3 3 4 4 4 4 5 5 5 5 4 9 11 11 15 16 15 16 17 20 24 25 23 24 28 29 28 25 25 22 16 17 25 29 31 33 35 36 35 37 37 36 35 38 38 36 38 38 37 40 41 39 39 40 43 45
11 11 10 9 9 9 8 7 7 7 6 5 4 4 4 4 4 3 4 4 4 5 5 5 6 5 6 5 5 4 4 4 3 4 4 3 4 4 4 5 4 4 4 8 11 11 15 15 14 14 14 18 21 21 20 21 22 23 22 19 18 18 17 21 26 28 29 31 34 33 33 35 35 34 34 33 33 34 35 32 32 37 39 38 40 40 42 45
12 12 11 10 11 10 9 8 8 7 6 4 4 4 4 4 4 4 4 5 5 5 5 5 5 5 5 5 4 4 5 4 5 6 6 4 3 4 4 4 4 5 5 8 10 11 14 16 14 14 15 18 19 19 18 16 16 16 16 14 14 16 20 24 26 28 27 27 29 29 31 35 34 32 29 27 28 30 30 28 27 30 34 37 39 40 42 44
13 13 12 12 12 11 10 9 8 7 6 4 4 5 5 5 4 4 5 5 5 5 5 4 4 4 4 4 4 5 4 5 7 7 6 5 4 4 4 4 5 5 5 7 10 10 13 16 15 14 15 17 17 17 15 13 13 13 12 11 13 16 20 24 25 26 25 25 26 26 28 31 31 30 27 25 26 26 26 27 27 27 30 34 36 38 42 45
15 14 14 13 13 12 10 10 8 7 5 4 5 6 5 5 4 4 5 5 4 5 5 5 5 5 4 4 4 5 4 5 7 7 6 5 4 4 4 4 5 6 7 8 10 11 13 14 14 14 15 15 14 13 12 12 11 11 11 12 14 17 19 24 24 24 26 27 25 23 25 28 31 31 29 27 27 28 28 28 29 29 29 32 33 35 41 46
16 16 15 14 13 12 11 10 9 7 5 4 6 7 5 4 4 4 4 4 4 5 5 4 4 4 3 4 4 5 4 4 6 6 6 5 4 4 4 5 5 6 8 9 10 12 14 13 13 13 14 14 13 12 12 11 10 10 11 11 14 17 20 24 25 26 28 27 26 27 29 31 33 34 34 33 31 30 30 28 31 33 32 33 34 35 37 43
17 17 16 15 13 12 11 11 9 7 5 7 8 7 5 4 4 4 4 4 5 4 3 3 3 3 3 3 4 5 4 4 5 6 5 5 5 5 5 5 6 7 8 9 10 13 14 13 12 12 13 14 13 12 11 10 10 11 11 11 15 20 24 25 25 28 29 28 29 31 32 33 33 34 35 34 32 30 28 27 29 33 35 36 37 37 36 40
18 17 16 15 14 13 11 11 10 7 7 8 8 7 5 4 4 4 4 4 4 3 2 2 2 2 3 4 4 5 4 3 5 6 5 4 4 5 5 5 6 7 8 8 10 12 12 13 12 11 11 13 13 11 11 10 11 11 12 15 19 24 27 27 27 28 29 30 32 33 34 35 34 35 34 30 29 27 25 27 28 30 34 37 38 38 37 39
18 18 17 14 13 12 12 11 10 8 9 9 8 7 5 4 4 4 5 4 3 3 3 3 2 3 3 4 6 7 6 5 6 6 5 4 4 5 4 4 6 7 7 8 10 11 12 12 11 11 10 11 11 11 10 10 11 12 14 19 23 24 25 28 31 29 28 31 34 34 36 38 38 37 34 28 27 27 25 27 27 30 34 36 37 36 36 37
18 18 16 14 13 12 12 12 11 9 9 8 9 7 5 4 4 5 5 5 3 3 4 3 4 5 5 4 6 9 7 6 7 6 5 5 4 5 4 4 4 5 6 7 9 9 10 10 10 11 11 11 11 11 11 11 12 13 15 21 24 24 25 29 32 31 30 34 34 34 38 43 43 39 35 31 29 28 26 27 29 32 35 35 35 36 34 34
17 17 16 14 13 12 12 12 11 10 9 9 8 7 5 4 5 5 6 6 5 5 4 4 6 6 8 7 7 9 9 8 7 6 5 4 4 4 4 4 4 5 7 8 9 9 9 10 10 11 11 11 12 12 12 12 14 14 15 20 24 25 26 28 33 33 33 35 32 33 42 48 45 38 35 34 32 30 27 27 29 32 33 34 36 36 34 33
17 17 16 14 13 12 12 12 12 11 10 9 8 7 5 4 5 6 6 7 7 6 6 6 7 8 9 8 6 7 8 8 7 6 5 5 5 5 5 5 5 7 8 8 9 10 10 10 11 12 12 12 13 13 14 15 15 16 17 21 25 27 28 28 33 36 36 35 31 35 45 49 45 38 36 37 35 31 30 29 29 30 30 30 34 34 33 33
17 16 16 14 13 13 12 12 12 11 10 9 9 8 5 4 6 7 7 8 7 7 8 9 9 10 10 7 6 6 7 7 7 5 5 4 5 5 5 6 6 7 7 9 10 10 11 12 13 13 13 13 15 16 17 18 19 20 20 23 27 29 30 30 33 37 36 35 35 37 44 47 44 39 37 38 38 33 31 32 30 29 30 30 32 33 33 34
16 15 16 15 13 13 12 12 12 12 11 9 10 10 7 5 6 7 8 8 7 8 10 12 11 12 11 7 6 6 6 7 6 6 5 4 5 6 6 6 6 6 7 9 10 11 13 14 15 14 14 15 17 18 19 21 23 23 23 26 28 29 31 31 34 36 35 37 37 36 42 44 42 41 39 38 40 35 31 33 33 32 33 33 33 33 32 35
17 16 17 16 14 14 13 12 12 12 11 10 10 11 10 8 6 7 8 8 8 8 9 10 10 12 10 7 6 6 6 6 5 6 5 5 6 6 7 7 8 8 9 10 10 12 14 14 14 14 15 16 18 19 19 21 24 24 23 24 26 28 29 32 36 37 36 38 37 36 39 41 39 40 40 39 41 38 34 36 37 37 35 34 34 31 32 35
17 17 17 17 15 14 13 12 11 12 12 10 9 10 11 10 8 7 7 8 9 9 10 10 10 11 10 8 8 6 6 7 6 6 5 5 6 7 9 10 10 11 12 12 12 13 14 14 15 15 16 17 17 19 21 21 21 21 22 21 23 26 28 31 34 36 38 39 39 37 37 38 37 39 41 40 42 41 38 37 38 38 35 32 31 29 29 32
18 18 18 18 16 15 14 13 11 12 13 11 9 9 10 9 9 8 8 9 9 10 12 12 11 11 9 8 9 8 8 7 7 7 6 7 7 8 11 12 13 13 13 13 13 13 14 14 15 15 16 17 17 18 20 20 19 18 19 19 21 23 26 29 32 35 37 39 40 36 34 36 38 39 40 41 43 42 40 38 38 39 36 31 28 27 27 28
19 18 18 18 17 16 15 14 12 12 12 11 9 9 10 9 10 10 9 9 9 10 11 10 10 10 9 9 9 9 8 8 8 7 7 8 8 10 12 13 14 14 13 13 13 13 13 14 15 16 17 19 19 19 19 18 18 17 18 20 20 21 24 29 34 37 38 39 40 37 35 36 38 41 41 42 43 43 42 40 39 40 38 32 28 27 27 28
19 19 19 18 17 16 16 14 13 12 12 11 9 9 10 10 12 13 10 9 8 9 10 9 9 9 8 8 9 9 9 8 8 8 8 9 9 11 12 13 13 13 14 13 13 13 13 14 15 15 17 19 21 19 19 18 18 18 19 20 20 20 25 31 35 37 37 38 40 39 38 38 38 42 44 43 44 45 44 41 39 39 37 32 30 29 29 30
19 19 20 18 17 17 16 15 15 14 13 11 10 10 11 11 13 14 12 11 9 8 9 9 9 8 8 8 9 10 10 9 8 8 9 9 10 11 12 12 13 14 14 13 13 14 14 15 15 15 16 18 20 19 18 18 18 20 21 21 22 22 24 30 34 34 34 36 38 40 39 37 39 42 44 44 46 48 46 42 40 39 36 34 33 32 32 33
18 19 20 18 18 18 17 16 15 15 14 12 11 11 12 12 13 14 13 12 10 7 8 9 8 8 8 8 9 9 9 9 8 9 9 9 10 11 11 12 13 14 13 13 14 14 15 16 14 15 15 15 18 18 17 17 18 21 23 23 23 23 25 30 32 33 34 33 35 38 37 37 38 41 43 44 46 48 48 44 40 40 38 36 35 34 34 35
16 19 20 19 18 18 17 16 16 15 15 13 13 12 13 12 14 15 13 12 12 9 8 8 8 8 8 8 9 9 9 9 9 9 9 10 10 10 11 12 13 13 13 13 14 14 14 15 15 15 15 16 17 18 17 18 18 20 23 23 24 23 25 28 30 31 33 32 31 35 39 40 38 40 43 45 46 48 51 48 43 41 40 37 37 37 36 36
16 18 20 19 18 18 17 16 16 16 15 15 14 13 13 13 14 15 13 13 13 11 9 8 9 8 8 9 9 9 9 9 9 9 9 10 9 10 11 12 12 14 14 13 13 14 14 14 16 16 16 17 17 17 17 19 19 19 19 21 23 22 22 25 26 29 35 36 33 32 39 44 40 39 44 45 45 48 51 50 46 44 44 41 39 39 39 41
16 17 19 19 18 17 17 17 16 16 15 15 15 14 13 14 15 14 15 16 14 11 9 8 9 9 8 9 9 9 10 10 9 9 9 10 10 11 12 12 13 14 14 14 14 15 14 15 16 16 16 16 16 17 18 19 20 19 18 19 20 20 20 23 24 28 35 36 32 29 37 44 39 38 44 46 46 48 49 51 49 48 48 45 42 42 44 45
17 18 18 19 18 17 17 17 17 16 16 16 14 14 15 15 14 13 17 20 16 11 9 8 9 9 9 9 9 9 10 10 9 8 9 10 10 11 11 13 13 13 13 14 14 15 14 14 15 15 16 15 16 17 18 19 20 19 18 19 19 18 19 21 22 25 29 28 28 29 32 38 38 38 43 46 48 48 48 52 52 52 53 50 45 47 48 47
17 17 18 18 17 17 17 17 17 17 16 16 14 14 16 16 14 14 19 23 17 10 8 9 9 8 9 9 9 10 11 10 10 9 9 9 10 10 11 13 13 13 13 13 14 16 15 14 14 14 15 15 15 16 17 19 18 18 19 19 19 19 20 20 19 22 23 25 29 30 28 32 36 38 41 46 49 48 48 52 53 53 55 54 50 50 50 50
16 17 18 18 17 16 16 16 17 17 17 16 14 15 17 16 15 15 20 22 15 10 9 9 9 9 9 10 9 10 10 10 10 10 9 9 10 10 11 12 12 13 13 12 14 16 14 14 15 15 15 14 14 15 17 16 16 18 19 20 21 21 22 20 20 21 20 21 28 29 26 29 34 38 41 45 47 45 45 49 51 52 54 56 54 52 51 52
16 17 18 18 17 16 16 16 16 17 18 16 15 15 16 17 16 16 18 19 14 12 10 10 10 10 11 11 11 11 11 10 10 10 10 9 10 10 11 12 12 13 14 14 14 15 16 16 15 15 14 14 14 16 16 15 15 16 18 21 21 22 26 28 28 25 18 20 25 25 24 27 33 37 38 38 38 37 40 46 48 50 52 53 52 50 50 49
16 17 17 18 17 16 16 16 16 17 18 16 16 15 16 19 21 19 18 18 16 16 14 12 11 11 12 13 13 12 11 11 10 10 10 10 10 11 11 12 13 14 17 17 14 15 18 18 16 15 15 16 16 17 16 15 15 16 18 20 18 20 24 26 29 24 17 23 27 24 24 26 31 34 33 32 34 35 38 42 46 47 49 49 48 48 48 46
16 17 16 17 17 16 16 16 16 18 18 18 17 16 19 22 20 18 20 20 21 20 18 16 14 13 13 13 13 13 12 11 10 10 11 11 12 12 12 13 15 14 17 18 15 16 20 20 19 18 20 21 22 22 19 17 17 17 20 22 21 25 25 25 29 23 17 24 25 23 25 27 31 34 33 33 33 35 37 40 44 46 46 46 46 47 47 45
17 17 16 16 16 17 17 16 16 18 18 19 17 17 24 26 21 19 20 23 24 23 21 19 16 15 15 13 13 13 11 11 10 11 12 12 12 12 12 13 14 13 16 18 16 18 22 23 22 21 23 25 25 25 22 20 19 16 19 22 23 29 28 29 32 25 20 24 22 23 27 30 35 35 33 34 31 32 37 40 44 46 44 45 45 46 46 45
17 17 16 16 17 17 17 16 18 19 18 18 18 19 24 26 24 22 22 24 26 23 22 20 18 16 15 14 14 12 11 11 11 12 13 13 12 13 12 11 12 13 16 19 18 18 23 25 24 23 25 25 25 26 25 24 21 17 19 21 20 24 24 24 27 24 23 25 23 27 29 31 36 35 34 35 31 30 35 39 42 43 43 45 45 45 46 46
18 17 16 16 17 16 16 17 20 20 18 18 22 24 24 25 24 23 24 26 25 24 23 21 18 17 15 15 14 12 11 11 12 13 14 14 13 13 12 11 12 14 15 18 20 20 21 24 26 25 24 25 24 25 25 25 23 20 21 20 18 21 22 22 24 25 24 24 24 30 32 33 36 35 35 35 32 32 34 36 40 42 43 45 45 45 46 45
17 18 17 16 16 16 15 18 22 20 18 20 23 24 24 24 23 24 25 25 24 25 25 21 19 18 17 15 14 12 12 12 13 14 14 15 14 14 13 12 12 13 14 18 22 22 21 24 25 24 23 24 23 23 25 25 25 25 23 21 20 22 23 22 23 26 26 22 23 30 35 37 36 34 35 35 35 35 35 38 41 42 43 44 44 45 46 44
17 17 17 16 16 15 15 20 23 20 19 21 22 23 24 22 22 25 26 25 25 24 24 22 20 19 17 17 16 15 14 13 13 15 15 16 17 16 15 14 13 13 15 19 22 22 23 24 24 23 23 24 23 24 26 26 27 26 24 23 22 21 24 23 22 27 27 24 27 33 38 39 36 35 34 35 36 36 37 40 41 42 42 42 45 46 45 43
17 17 18 19 18 15 16 20 21 20 21 23 26 28 26 21 21 25 26 26 27 25 23 23 21 20 18 18 18 16 14 14 14 16 17 16 18 18 16 16 15 15 16 18 19 21 22 24 26 26 24 26 27 26 27 27 26 26 24 23 21 20 22 22 23 25 24 25 28 31 38 40 35 33 32 32 35 37 37 40 40 41 42 41 44 45 43 41
16 16 17 21 20 17 18 20 21 21 20 24 29 29 24 22 23 25 26 28 30 27 25 23 22 20 19 17 17 16 15 16 16 17 17 17 18 18 18 17 17 17 18 19 20 22 24 26 28 28 26 27 28 28 28 28 26 26 25 24 22 23 24 23 23 24 23 27 28 30 40 41 32 30 30 30 33 35 36 38 39 40 40 40 42 41 40 39
15 15 17 21 23 21 21 21 20 21 22 24 28 26 23 24 24 23 26 29 31 30 27 24 23 22 21 18 17 17 17 18 18 18 19 19 20 20 19 19 18 19 19 19 21 23 25 26 27 28 28 28 30 29 30 30 27 26 26 25 24 25 25 24 24 24 24 29 33 36 39 35 29 29 28 27 30 33 34 37 38 39 39 39 39 38 38 38
15 16 18 21 23 22 21 21 21 22 23 24 25 24 24 27 28 27 28 30 32 31 28 25 23 23 23 22 20 18 19 21 21 20 19 19 20 21 20 20 19 20 20 20 21 22 24 26 27 29 28 29 31 31 31 30 28 27 26 25 25 25 26 27 28 29 27 27 32 34 31 27 28 29 26 26 30 31 33 35 37 39 39 38 38 37 37 39
15 18 19 21 22 22 21 22 23 23 23 23 22 21 23 27 31 32 31 32 33 31 28 27 26 25 24 25 23 22 22 22 23 23 20 20 20 21 22 22 21 22 22 22 22 23 27 30 30 31 32 32 32 32 32 30 28 27 26 25 26 27 27 26 28 30 26 24 29 30 26 24 29 30 27 27 29 29 31 33 35 37 37 37 37 36 38 40
20 19 18 19 20 20 21 23 24 22 23 22 19 18 19 23 29 30 30 33 34 32 30 30 28 26 25 24 24 23 22 22 25 24 22 22 22 22 23 23 22 25 26 25 25 26 30 32 31 34 38 38 34 34 33 32 29 26 26 26 25 26 26 25 29 30 25 23 26 27 26 25 29 33 31 27 28 30 30 31 33 35 37 37 38 37 39 39
24 19 17 20 22 21 21 23 23 23 25 21 18 17 18 19 23 27 29 32 32 31 32 32 29 27 25 24 24 24 22 22 24 24 23 24 23 23 25 25 25 28 28 26 26 26 27 32 33 34 37 37 35 34 34 33 30 28 28 27 25 26 26 25 27 26 23 24 25 25 27 28 29 33 31 28 28 28 27 29 32 35 37 39 39 39 39 40
25 22 19 22 24 23 23 24 22 22 23 20 18 19 19 18 21 25 29 29 28 29 32 32 30 28 29 28 26 25 24 23 24 25 25 26 25 25 27 26 27 29 29 28 28 28 31 37 40 38 37 37 36 37 37 36 32 30 29 28 26 27 26 25 26 24 23 28 27 25 26 26 28 30 29 30 29 27 27 29 31 34 37 40 41 40 41 42
28 28 26 26 27 26 26 26 24 24 22 21 22 21 20 20 21 23 27 29 27 26 27 29 28 27 29 28 28 29 27 25 26 28 29 30 29 28 29 28 28 30 31 29 29 34 36 37 40 39 35 34 35 37 39 37 33 31 30 29 29 27 26 28 29 27 28 30 29 30 30 25 26 30 29 31 30 28 28 29 31 33 36 40 41 41 42 43
30 31 30 30 32 30 30 29 28 29 26 22 24 24 22 22 22 22 23 25 26 25 24 26 27 26 26 25 26 28 29 29 28 28 31 32 32 31 30 30 31 31 31 30 31 37 36 30 34 37 33 33 35 35 34 31 29 30 29 27 27 26 24 26 27 28 32 30 28 35 37 28 26 31 31 31 31 30 30 31 31 33 36 39 41 41 42 43
32 32 30 31 34 34 34 31 30 32 29 25 27 28 25 24 24 23 22 22 24 24 23 24 25 25 26 24 23 26 29 30 29 29 31 32 33 33 31 31 33 32 31 31 32 38 38 31 31 32 31 32 33 32 30 27 26 26 25 24 25 26 24 24 27 31 32 30 27 34 36 30 26 29 29 31 31 31 30 31 32 34 36 38 40 42 43 43
34 34 32 32 34 34 33 30 31 33 30 28 32 31 27 27 26 25 24 23 24 25 24 25 25 24 25 24 24 27 29 29 28 29 32 32 33 34 33 33 34 33 32 34 34 36 37 36 35 32 29 31 31 30 29 26 25 25 23 24 24 24 24 24 27 32 33 31 29 30 32 30 26 26 29 29 30 30 30 31 33 34 37 39 42 44 45 46
36 37 35 35 37 36 33 32 33 33 31 31 33 32 29 29 30 30 28 25 25 26 25 26 25 24 24 25 25 26 27 28 28 28 30 32 33 35 35 35 34 33 33 35 36 35 33 37 41 36 31 32 34 33 30 27 27 25 24 26 25 23 24 23 24 28 29 30 29 28 28 29 27 29 30 28 29 30 31 33 35 35 37 40 43 46 47 49
34 36 37 39 40 39 37 36 35 36 36 35 34 33 31 31 32 33 32 29 26 26 24 24 24 25 27 28 27 25 25 27 27 27 28 30 31 34 34 34 35 35 36 36 36 36 36 38 41 38 33 33 33 31 29 29 27 24 24 26 25 22 22 22 23 27 28 29 30 29 27 28 31 33 33 32 32 33 34 35 36 36 37 39 42 44 46 45
29 30 33 37 39 38 39 40 38 40 40 37 34 33 32 32 32 34 36 33 28 28 28 25 25 28 30 29 28 26 24 25 25 24 25 27 29 31 32 34 35 36 38 39 38 40 42 39 38 37 34 34 34 31 30 32 30 28 28 27 24 22 23 22 24 27 29 30 29 28 27 30 35 36 35 35 36 34 34 35 35 35 36 38 40 41 41 42